Regional Weather Roundup
Issued by NWS Cleveland, OH

Home | Current Version | Previous Version | Text Only | Print | Product List | Glossary Off
Versions: 1 2 3 4 5 6 7 8 9 10 11 12 13 14 15 16 17 18 19 20 21 22 23 24 25 26 27 28 29 30 31 32 33 34 35 36 37 38 39 40 41 42 43 44 45 46 47 48 49 50

000
ASUS41 KCLE 261210
RWRCLE
OHIO REGIONAL WEATHER ROUNDUP
NATIONAL WEATHER SERVICE WILMINGTON, OH
800 AM EDT WED APR 26 2017

NOTE: "FAIR" INDICATES FEW OR NO CLOUDS BELOW 12,000 FEET WITH NO
SIGNIFICANT WEATHER AND/OR OBSTRUCTIONS TO VISIBILITY.

OHZ001>008-015>018-024>027-034-035-043-044-261300-
   NORTHWEST OHIO

CITY           SKY/WX    TMP DP  RH WIND       PRES   REMARKS
DEFIANCE       FAIR      60  54  80 SE10      29.66S
FINDLAY        FAIR      59  53  80 SE13      29.70R
TOLEDO EXPRESS FAIR      59  56  89 VRB5      29.69R
TOLEDO EXEC    FAIR      59  56  89 SE10      29.70S
LIMA           FAIR      60  56  86 S13       29.70R
$$

OHZ009>014-019>023-028>033-038-089-261300-
   NORTHEAST OHIO

CITY           SKY/WX    TMP DP  RH WIND       PRES   REMARKS
CLE-HOPKINS    FAIR      58  52  80 SE12      29.78R
CLE-LAKEFRONT  FAIR      58  52  80 SE13      29.74R
CUY CO. ARPT   MOSUNNY   57  54  88 S9        29.77R
LORAIN-ELYRIA  FAIR      56  51  84 S10       29.75R
ASHTABULA      FAIR      56  53  90 S6        29.78R
AKRON-CANTON   PTSUNNY   54  51  90 S8        29.79R FOG
WOOSTER        CLOUDY    53  52  96 SE10      29.78R FOG
MANSFIELD      FAIR      57  54  89 SE10      29.75R
YOUNGSTOWN     FAIR      55  52  89 SE5       29.80R
$$

OHZ042-051>053-060>062-070>072-077>081-261300-
  SOUTHWEST OHIO

CITY           SKY/WX    TMP DP  RH WIND       PRES   REMARKS
CINC-COVINGTON PTSUNNY   60  56  86 S9        29.71S
CINC-LUNKEN    FAIR      55  55 100 CALM      29.73R
HAMILTON       FAIR      60  58  92 E5        29.71S
DAYTON         PTSUNNY   60  57  89 SE9       29.72R
WRIGHT-PAT AFB FAIR      61  59  92 SE3       29.72R
DAYTON GENERAL FAIR      60  56  86 S8        29.71R
WILMINGTON     FAIR      61  58  90 S8        29.74R
$$

OHZ036-037-039>041-045>050-054>059-063>069-073>076-082>088-261300-
  CENTRAL AND SOUTHEAST OHIO

CITY           SKY/WX    TMP DP  RH WIND       PRES   REMARKS
COLUMBUS       FAIR      59  54  83 SE7       29.75R
OSU AIRPORT    FAIR      58  55  90 SE6       29.75R
BOLTON FIELD   FAIR      57  55  92 S3        29.76R
RICKENBACK AFB FAIR      55  54  96 E3        29.75R
NEWARK         FAIR      55  53  93 CALM      29.77R
MARION         FAIR      57  53  86 S12       29.74R
LANCASTER      FAIR      58  54  86 SE8       29.77R
ZANESVILLE     FAIR      53  51  93 SE3       29.78R
NEW PHILLY     CLOUDY    53  53 100 SE5       29.80R FOG
$$



USA.gov is the U.S. government's official web portal to all federal, state and local government web resources and services.